| time (UTC) | temp F | wind direction | speed MPH | gust MPH | rain 1hr in | rain 24hr in | rain mn in | humidity % | barometer mb |
| 20260903004535 | 95 | 163 | 2.0 | 6.0 | 0.00 | 0.00 | 0.00 | 42 | 1008.2 |
| 20260903003033 | 96 | 154 | 2.0 | 8.0 | 0.00 | 0.00 | 0.00 | 41 | 1008.2 |
| 20260903001533 | 97 | 163 | 3.0 | 9.0 | 0.00 | 0.00 | 0.00 | 39 | 1008.1 |
| 20260903000035 | 97 | 175 | 3.0 | 8.0 | 0.00 | 0.00 | 0.00 | 38 | 1008.1 |
| 20260902234532 | 98 | 170 | 4.0 | 8.0 | 0.00 | 0.00 | 0.00 | 36 | 1008.1 |
| 20260902233031 | 98 | 161 | 3.0 | 8.0 | 0.00 | 0.00 | 0.00 | 35 | 1008.2 |
| 20260902231532 | 99 | 126 | 3.0 | 8.0 | 0.00 | 0.00 | 0.00 | 35 | 1008.2 |
| 20260902230029 | 99 | 138 | 3.0 | 8.0 | 0.00 | 0.00 | 0.00 | 36 | 1008.3 |
| 20260902224529 | 99 | 156 | 3.0 | 9.0 | 0.00 | 0.00 | 0.00 | 36 | 1008.3 |
| 20260902223027 | 100 | 137 | 3.0 | 10.0 | 0.00 | 0.00 | 0.00 | 37 | 1008.2 |
| 20260902221532 | 100 | 138 | 2.0 | 8.0 | 0.00 | 0.00 | 0.00 | 37 | 1008.4 |
| 20260902220039 | 100 | 225 | 2.0 | 9.0 | 0.00 | 0.00 | 0.00 | 37 | 1008.5 |
| 20260902214523 | 99 | 130 | 3.0 | 7.0 | 0.00 | 0.00 | 0.00 | 39 | 1008.6 |
| 20260902213021 | 100 | 123 | 4.0 | 9.0 | 0.00 | 0.00 | 0.00 | 38 | 1008.8 |
| 20260902211520 | 99 | 194 | 5.0 | 10.0 | 0.00 | 0.00 | 0.00 | 39 | 1008.9 |
| 20260902210039 | 100 | 74 | 3.0 | 11.0 | 0.00 | 0.00 | 0.00 | 39 | 1009.1 |
| 20260902204517 | 99 | 146 | 4.0 | 11.0 | 0.00 | 0.00 | 0.00 | 39 | 1009.4 |
| 20260902203014 | 99 | 128 | 3.0 | 14.0 | 0.00 | 0.00 | 0.00 | 41 | 1009.5 |
| 20260902201512 | 99 | 146 | 3.0 | 8.0 | 0.00 | 0.00 | 0.00 | 41 | 1009.7 |
| 20260902200011 | 99 | 144 | 5.0 | 10.0 | 0.00 | 0.00 | 0.00 | 39 | 1010.0 |
| 20260902194509 | 99 | 125 | 4.0 | 8.0 | 0.00 | 0.00 | 0.00 | 40 | 1010.2 |
| 20260902193005 | 99 | 158 | 2.0 | 8.0 | 0.00 | 0.00 | 0.00 | 40 | 1010.4 |
| 20260902191504 | 99 | 113 | 2.0 | 10.0 | 0.00 | 0.00 | 0.00 | 40 | 1010.5 |
| 20260902190004 | 99 | 138 | 4.0 | 9.0 | 0.00 | 0.00 | 0.00 | 39 | 1010.7 |
| 20260902184500 | 99 | 188 | 2.0 | 9.0 | 0.00 | 0.00 | 0.00 | 39 | 1010.9 |
| 20260902183058 | 98 | 113 | 3.0 | 8.0 | 0.00 | 0.00 | 0.00 | 40 | 1011.2 |
| 20260902181603 | 97 | 148 | 3.0 | 12.0 | 0.00 | 0.00 | 0.00 | 42 | 1011.4 |
| 20260902180110 | 97 | 136 | 2.0 | 6.0 | 0.00 | 0.00 | 0.00 | 42 | 1011.8 |
| 20260902174555 | 97 | 166 | 4.0 | 8.0 | 0.00 | 0.00 | 0.00 | 43 | 1012.0 |
| 20260902173048 | 96 | 173 | 2.0 | 8.0 | 0.00 | 0.00 | 0.00 | 45 | 1012.1 |
| 20260902171544 | 95 | 254 | 2.0 | 9.0 | 0.00 | 0.00 | 0.00 | 45 | 1012.4 |
| 20260902170040 | 95 | 162 | 3.0 | 10.0 | 0.00 | 0.00 | 0.00 | 47 | 1012.7 |
| 20260902164538 | 93 | 229 | 4.0 | 10.0 | 0.00 | 0.00 | 0.00 | 48 | 1012.8 |
| 20260902163036 | 94 | 198 | 2.0 | 13.0 | 0.00 | 0.00 | 0.00 | 49 | 1012.9 |
| 20260902161531 | 92 | 198 | 3.0 | 9.0 | 0.00 | 0.00 | 0.00 | 50 | 1013.0 |
| 20260902160029 | 92 | 173 | 3.0 | 10.0 | 0.00 | 0.00 | 0.00 | 52 | 1013.1 |
| 20260902154524 | 90 | 173 | 2.0 | 11.0 | 0.00 | 0.00 | 0.00 | 53 | 1013.1 |
| 20260902153031 | 90 | 241 | 4.0 | 8.0 | 0.00 | 0.00 | 0.00 | 54 | 1013.1 |
| 20260902151519 | 89 | 186 | 4.0 | 9.0 | 0.00 | 0.00 | 0.00 | 54 | 1013.1 |
| 20260902150014 | 88 | 142 | 4.0 | 10.0 | 0.00 | 0.00 | 0.00 | 56 | 1013.1 |
| 20260902144525 | 87 | 270 | 4.0 | 10.0 | 0.00 | 0.00 | 0.00 | 57 | 1013.2 |
| 20260902143012 | 86 | 178 | 3.0 | 10.0 | 0.00 | 0.00 | 0.00 | 59 | 1013.2 |
| 20260902141508 | 85 | 259 | 2.0 | 10.0 | 0.00 | 0.00 | 0.00 | 61 | 1013.1 |
| 20260902140007 | 84 | 165 | 3.0 | 12.0 | 0.00 | 0.00 | 0.00 | 62 | 1013.1 |
| 20260902134507 | 83 | 153 | 4.0 | 10.0 | 0.00 | 0.00 | 0.00 | 64 | 1013.0 |
| 20260902133005 | 82 | 169 | 3.0 | 10.0 | 0.00 | 0.00 | 0.00 | 66 | 1013.0 |
| 20260902131505 | 81 | 155 | 2.0 | 11.0 | 0.00 | 0.00 | 0.00 | 67 | 1013.1 |
| 20260902130001 | 80 | 164 | 2.0 | 8.0 | 0.00 | 0.00 | 0.00 | 68 | 1013.0 |
| 20260902124601 | 79 | 360 | 2.0 | 6.0 | 0.00 | 0.00 | 0.00 | 69 | 1012.8 |
| 20260902123058 | 79 | 360 | 2.0 | 6.0 | 0.00 | 0.00 | 0.00 | 69 | 1012.7 |
| 20260902121556 | 79 | 360 | 2.0 | 8.0 | 0.00 | 0.00 | 0.00 | 68 | 1012.5 |
| 20260902120054 | 79 | 360 | 2.0 | 6.0 | 0.00 | 0.00 | 0.00 | 68 | 1012.3 |
| 20260902114552 | 79 | 360 | 2.0 | 6.0 | 0.00 | 0.00 | 0.00 | 67 | 1012.1 |
| 20260902113053 | 80 | 360 | 2.0 | 8.0 | 0.00 | 0.00 | 0.00 | 66 | 1012.2 |
| 20260902111548 | 80 | 360 | 2.0 | 8.0 | 0.00 | 0.00 | 0.00 | 66 | 1012.0 |
| 20260902110045 | 80 | 360 | 2.0 | 6.0 | 0.00 | 0.00 | 0.00 | 65 | 1012.0 |
| 20260902104545 | 80 | 360 | 2.0 | 5.0 | 0.00 | 0.00 | 0.00 | 65 | 1012.0 |
| 20260902103040 | 81 | 360 | 1.0 | 6.0 | 0.00 | 0.00 | 0.00 | 64 | 1012.0 |
| 20260902101538 | 81 | 360 | 2.0 | 5.0 | 0.00 | 0.00 | 0.00 | 63 | 1011.9 |
| 20260902100036 | 81 | 360 | 2.0 | 8.0 | 0.00 | 0.00 | 0.00 | 63 | 1011.8 |
| 20260902094535 | 82 | 360 | 1.0 | 8.0 | 0.00 | 0.00 | 0.00 | 62 | 1011.7 |
| 20260902093038 | 82 | 360 | 2.0 | 8.0 | 0.00 | 0.00 | 0.00 | 62 | 1011.8 |
| 20260902091541 | 81 | 360 | 2.0 | 6.0 | 0.00 | 0.00 | 0.00 | 61 | 1011.7 |
| 20260902090033 | 81 | 360 | 3.0 | 6.0 | 0.00 | 0.00 | 0.00 | 61 | 1011.7 |
| 20260902084533 | 82 | 360 | 2.0 | 6.0 | 0.00 | 0.00 | 0.00 | 60 | 1011.6 |
| 20260902083029 | 83 | 360 | 2.0 | 8.0 | 0.00 | 0.00 | 0.00 | 59 | 1011.6 |
| 20260902081526 | 83 | 360 | 2.0 | 8.0 | 0.00 | 0.00 | 0.00 | 58 | 1011.7 |
| 20260902080025 | 83 | 360 | 2.0 | 6.0 | 0.00 | 0.00 | 0.00 | 57 | 1011.7 |
| 20260902074525 | 83 | 360 | 2.0 | 5.0 | 0.00 | 0.00 | 0.00 | 57 | 1011.7 |
| 20260902073023 | 84 | 360 | 2.0 | 6.0 | 0.00 | 0.00 | 0.00 | 56 | 1011.7 |
| 20260902071521 | 84 | 360 | 3.0 | 6.0 | 0.00 | 0.00 | 0.00 | 55 | 1011.7 |
| 20260902070020 | 85 | 360 | 1.0 | 5.0 | 0.00 | 0.00 | 0.00 | 55 | 1011.7 |
| 20260902064519 | 85 | 360 | 2.0 | 5.0 | 0.00 | 0.00 | 0.00 | 54 | 1011.7 |
| 20260902063018 | 85 | 360 | 1.0 | 6.0 | 0.00 | 0.00 | 0.00 | 54 | 1011.7 |
| 20260902061532 | 85 | 360 | 1.0 | 4.0 | 0.00 | 0.00 | 0.00 | 53 | 1011.7 |
| 20260902060014 | 85 | 360 | 1.0 | 5.0 | 0.00 | 0.00 | 0.00 | 53 | 1011.7 |
| 20260902054512 | 86 | 360 | 2.0 | 5.0 | 0.00 | 0.00 | 0.00 | 52 | 1011.7 |
| 20260902053009 | 86 | 360 | 1.0 | 6.0 | 0.00 | 0.00 | 0.00 | 52 | 1011.7 |
| 20260902051507 | 86 | 360 | 1.0 | 5.0 | 0.00 | 0.00 | 0.00 | 51 | 1011.5 |
| 20260902050009 | 86 | 360 | 0.0 | 3.0 | 0.00 | 0.00 | 0.00 | 50 | 1011.6 |
| 20260902044503 | 87 | 360 | 1.0 | 5.0 | 0.00 | 0.00 | 0.00 | 50 | 1011.6 |
| 20260902043002 | 87 | 360 | 2.0 | 6.0 | 0.00 | 0.00 | 0.00 | 49 | 1011.5 |
| 20260902041501 | 87 | 360 | 3.0 | 6.0 | 0.00 | 0.00 | 0.00 | 49 | 1011.4 |
| 20260902040100 | 88 | 360 | 1.0 | 5.0 | 0.00 | 0.00 | 0.00 | 49 | 1011.5 |
| 20260902034603 | 88 | 360 | 1.0 | 5.0 | 0.00 | 0.00 | 0.00 | 48 | 1011.5 |
| 20260902033108 | 88 | 360 | 1.0 | 5.0 | 0.00 | 0.00 | 0.00 | 47 | 1011.5 |
| 20260902031559 | 89 | 360 | 1.0 | 6.0 | 0.00 | 0.00 | 0.00 | 47 | 1011.3 |
| 20260902030058 | 89 | 360 | 2.0 | 6.0 | 0.00 | 0.00 | 0.00 | 46 | 1011.2 |
| 20260902024607 | 89 | 360 | 1.0 | 4.0 | 0.00 | 0.00 | 0.00 | 46 | 1010.9 |
| 20260902023057 | 90 | 360 | 1.0 | 4.0 | 0.00 | 0.00 | 0.00 | 46 | 1010.6 |
| 20260902021612 | 90 | 360 | 0.0 | 3.0 | 0.00 | 0.00 | 0.00 | 45 | 1010.4 |
| 20260902020056 | 91 | 360 | 0.0 | 5.0 | 0.00 | 0.00 | 0.00 | 45 | 1010.2 |
| 20260902014556 | 91 | 360 | 1.0 | 4.0 | 0.00 | 0.00 | 0.00 | 44 | 1010.1 |
| 20260902013103 | 92 | 360 | 1.0 | 5.0 | 0.00 | 0.00 | 0.00 | 43 | 1010.0 |
| 20260902011554 | 93 | 360 | 2.0 | 4.0 | 0.00 | 0.00 | 0.00 | 41 | 1009.9 |
| 20260902010058 | 94 | 360 | 2.0 | 5.0 | 0.00 | 0.00 | 0.00 | 39 | 1009.8 |